Location: Unspecified
(0.0000°N, 0.0000°E)
Time: 09:12:33
(UTC+00:00)

deb Explorer IX - Pass Details

Date: 20 December 2018
Orbit: 538 x 1115 km, 38.8° (Epoch: 17 January)

Event Time Altitude Azimuth Distance (km) Brightness Sun altitude
Rises 01:23:02 0° 296° (WNW) 2,931 - -58.7°
Reaches altitude 10° 01:25:19 10° 288° (WNW) 2,100 - -58.3°
Maximum altitude 01:29:55 40° 219° (SW) 1,099 - -57.5°
Drops below altitude 10° 01:35:19 10° 150° (SSE) 2,469 - -56.6°
Exits shadow 01:37:51 - 144° (SE) 3,371 ? -56.2°
Sets 01:38:14 0° 143° (SE) 3,513 ? -56.1°
